Regional Weather Roundup
Issued by NWS

Home | Current Version | Previous Version | Text Only | Print | Product List | Glossary On
Versions: 1 2 3 4 5 6 7 8 9 10 11 12 13 14 15 16 17 18 19 20 21 22 23 24 25 26 27 28 29 30 31 32 33 34 35 36 37 38 39 40 41 42 43 44 45 46 47 48 49 50
000
ASUS43 KLSX 250759
RWRMO

WEATHER SUMMARY FOR MISSOURI
NATIONAL WEATHER SERVICE SPRINGFIELD MO
300 AM CDT MON MAY 25 2015

NOTE: "FAIR" INDICATES FEW OR NO CLOUDS BELOW 12,000 FEET WITH NO
       SIGNIFICANT WEATHER AND/OR OBSTRUCTIONS TO VISIBILITY.
       CURRENT SKY AND/OR WEATHER CONDITIONS ARE NOT AVAILABLE FOR
       CHILLICOTHE AND FARMINGTON.

MOZ001>031-035>038-043-044-053-054-250900-
...NORTHERN AND WESTERN MISSOURI...

CITY           SKY/WX    TMP DP  RH WIND       PRES   REMARKS
KANSAS CTY INT LGT RAIN  62  62 100 S5        29.84S
KANSAS C DTWN  LGT RAIN  64  60  87 S6        29.84R
LEE`S SUMMIT   LGT RAIN  62  60  93 SW8       29.86R
ST JOSEPH      LGT RAIN  63  62  97 S6        29.83R
KIRKSVILLE     CLOUDY    63  62  97 SW3       29.81F

$$
MOZ066>068-077>081-088>096-101>105-250900-
...SOUTHWEST MISSOURI...

CITY           SKY/WX    TMP DP  RH WIND       PRES   REMARKS
SPRINGFIELD    CLOUDY    63  60  90 SW10      29.92R
JOPLIN         CLOUDY    62  61  96 SW9       29.90F

$$
MOZ032>034-039>042-045>050-055>058-069>072-250900-
...CENTRAL MISSOURI...

CITY           SKY/WX    TMP DP  RH WIND       PRES   REMARKS
COLUMBIA       CLOUDY    64  64 100 S8        29.84S
JEFFERSON CITY CLOUDY    66  64  93 S5        29.84R
ROLLA          CLOUDY    66  64  93 S12       29.86R
SEDALIA        LGT RAIN  63  60  90 W7        29.86R
WHITEMAN AFB   LGT RAIN  63  63 100 SW13      29.85R FOG
OSAGE BEACH    CLOUDY    64  61  88 SW14      29.87R

$$
MOZ051-052-059>065-250900-
...EAST CENTRAL MISSOURI...

CITY           SKY/WX    TMP DP  RH WIND       PRES   REMARKS
ST LOUIS INTL  CLOUDY    71  65  81 S10       29.87S
SPIRIT OF STL  CLOUDY    69  66  90 S6        29.86R
ST CHARLES     CLOUDY    69  66  90 S16       29.85F

$$
MOZ072>076-082>087-097>100-106>115-250900-
...SOUTH CENTRAL AND SOUTHEAST MISSOURI...

CITY           SKY/WX    TMP DP  RH WIND       PRES   REMARKS
CAPE GIRARDEAU LGT RAIN  70  68  93 S18G26    29.97S
FARMINGTON     CLOUDY    66  64  94 S13G21    29.96S
POPLAR BLUFF   CLOUDY    69  66  90 S15G24    29.93F
WEST PLAINS    CLOUDY    68  64  87 S9        29.95R

$$



USA.gov is the U.S. government's official web portal to all federal, state and local government web resources and services.